Tracking 30995 objects as of 7-Jul-2025
HD Live streaming from Space Station
objects crossing your sky now

STARLINK-32398

Track STARLINK-32398 now!
10-day predictions
STARLINK-32398 is classified as:


NORAD ID: 61624
Int'l Code: 2024-191D
Perigee: 489.3 km
Apogee: 491.1 km
Inclination: 43.0 °
Period: 94.3 minutes
Semi major axis: 6861 km
RCS: Unknown
Launch date: October 23, 2024
Source: United States (US)
Launch site: AIR FORCE EASTERN TEST RANGE (AFETR)
Your satellite tracking list
ARIANE 44LP R/B
Track 1 satellite(s)




NASA's NSSDC Master Catalog

Two Line Element Set (TLE):
1 61624U 24191D   25187.82070964 -.00000758  00000-0 -18048-4 0  9992
2 61624  43.0028 103.0662 0001299 264.7348  95.3355 15.27568106 40635
Source of the keplerian elements: AFSPC